Portada
METAR-TAF:

METAR-TAF

Aeroports :

Remada, Tunísia

latitud: 32-19N, longitud: 010-24E, altitud: 300 m

Observació

L'informe es va fer fa 27 minuts, a les 08:00 UTC
Vent 7 kt del Oest/Sud-Oest, variant entre Sud i Oest/Nord-Oest
Temperatura 21°C
Humitat 28%
Pressió 1014 hPa
Visibilitat 10 km o més
sense núvols per sota de 1500 mi sense presència de cumulonimbus.

METAR: DTTD 160800Z 25007KT 170V290 CAVOK 21/02 Q1014

Hora: 09:27 (08:27 UTC)


TAF: manca

Observacions i pronòstics meteorològics de més de 4000 aeroports (METAR i TAF).

Les estacions disponibles són els punts grocs i vermells al mapa.

Posi el ratolí al punt desitjat per veure el nom de l'estació.

Feu clic per veure les observacions i els pronòstics meteorològics.

Per canviar el mapa: feu clic els botons verds amb una creu de color negre per apropar; al botó verd amb un guió per allunyar la imatge; o en les fletxes verdes per a mapes adjacents.


METAR-TAF: